TimeEDT,TemperatureF,Dew PointF,Humidity,Sea Level PressureIn,VisibilityMPH,Wind Direction,Wind SpeedMPH,Gust SpeedMPH,PrecipitationIn,Events,Conditions,WindDirDegrees,DateUTC
12:55 AM,42.1,39.0,89,29.96,9.0,Calm,Calm,-,0.00,Rain,Light Rain,0,2012-09-23 04:55:00
1:06 AM,42.1,39.0,89,29.95,9.0,Calm,Calm,-,0.00,Rain,Light Rain,0,2012-09-23 05:06:00
1:19 AM,42.1,39.0,89,29.95,10.0,SW,3.5,-,0.01,Rain,Light Rain,230,2012-09-23 05:19:00
1:32 AM,41.0,39.0,93,29.95,10.0,SSW,3.5,-,0.01,,Overcast,210,2012-09-23 05:32:00
1:55 AM,42.1,39.0,89,29.97,10.0,SSW,3.5,-,0.01,,Overcast,210,2012-09-23 05:55:00
2:55 AM,43.0,37.0,80,29.97,10.0,NW,3.5,-,N/A,,Overcast,320,2012-09-23 06:55:00
3:55 AM,42.1,39.0,89,29.98,10.0,WSW,4.6,-,0.00,Rain,Light Rain,250,2012-09-23 07:55:00
4:06 AM,42.1,39.0,89,29.97,10.0,WSW,4.6,-,0.00,Rain,Light Rain,240,2012-09-23 08:06:00
4:37 AM,42.1,39.0,89,29.98,10.0,SW,4.6,-,0.01,,Overcast,230,2012-09-23 08:37:00
4:55 AM,42.1,39.0,89,29.99,10.0,WSW,3.5,-,0.01,,Overcast,240,2012-09-23 08:55:00
5:55 AM,42.1,37.9,85,30.01,10.0,Calm,Calm,-,0.00,Rain,Light Rain,0,2012-09-23 09:55:00
6:55 AM,41.0,37.9,89,30.02,10.0,SSW,4.6,-,0.01,Rain,Light Rain,200,2012-09-23 10:55:00
7:09 AM,39.9,37.9,93,30.01,10.0,SSW,3.5,-,0.00,,Mostly Cloudy,210,2012-09-23 11:09:00
7:26 AM,39.9,37.9,93,30.01,10.0,SW,3.5,-,0.00,,Overcast,230,2012-09-23 11:26:00
7:55 AM,39.9,37.9,93,30.03,10.0,SW,4.6,-,0.00,,Mostly Cloudy,220,2012-09-23 11:55:00
8:55 AM,42.1,39.0,89,30.05,7.0,WSW,5.8,-,0.02,Rain,Light Rain,250,2012-09-23 12:55:00
9:05 AM,42.1,39.0,89,30.04,3.0,SW,5.8,-,0.01,Rain,Light Rain,230,2012-09-23 13:05:00
9:37 AM,43.0,39.9,89,30.04,10.0,SW,3.5,-,0.03,Rain,Light Rain,220,2012-09-23 13:37:00
9:55 AM,45.0,42.1,90,30.05,10.0,SSW,4.6,-,0.03,,Overcast,210,2012-09-23 13:55:00
10:23 AM,46.9,41.0,80,30.04,10.0,Variable,4.6,-,0.00,,Mostly Cloudy,0,2012-09-23 14:23:00
10:55 AM,46.9,39.0,74,30.06,10.0,NW,4.6,-,0.00,Rain,Light Rain,320,2012-09-23 14:55:00
11:55 AM,48.9,37.9,66,30.06,10.0,NNW,6.9,-,0.00,,Overcast,330,2012-09-23 15:55:00
12:55 PM,48.9,39.0,69,30.07,8.0,NNW,9.2,-,0.01,Rain,Light Rain,330,2012-09-23 16:55:00
1:55 PM,48.9,41.0,74,30.07,10.0,WNW,6.9,-,0.01,,Mostly Cloudy,300,2012-09-23 17:55:00
2:55 PM,51.1,39.9,66,30.07,10.0,NW,11.5,-,0.01,,Mostly Cloudy,310,2012-09-23 18:55:00
3:55 PM,50.0,37.0,61,30.08,10.0,WNW,9.2,-,N/A,,Mostly Cloudy,300,2012-09-23 19:55:00
4:55 PM,51.1,37.0,59,30.08,10.0,WNW,10.4,-,0.00,,Mostly Cloudy,290,2012-09-23 20:55:00
5:55 PM,50.0,37.9,63,30.08,10.0,WNW,12.7,19.6,0.00,Rain,Light Rain,290,2012-09-23 21:55:00
6:55 PM,48.0,36.0,63,30.08,10.0,Variable,5.8,-,0.00,,Scattered Clouds,0,2012-09-23 22:55:00
7:55 PM,44.1,39.0,82,30.09,10.0,West,4.6,-,0.02,,Scattered Clouds,260,2012-09-23 23:55:00
8:55 PM,46.0,37.9,73,30.09,10.0,West,6.9,-,0.00,,Mostly Cloudy,260,2012-09-24 00:55:00
9:55 PM,45.0,39.0,80,30.09,10.0,WSW,5.8,-,N/A,,Overcast,240,2012-09-24 01:55:00
10:55 PM,43.0,37.9,82,30.09,10.0,WSW,6.9,-,N/A,,Partly Cloudy,240,2012-09-24 02:55:00
11:55 PM,43.0,37.9,82,30.08,10.0,WSW,8.1,-,0.01,,Clear,240,2012-09-24 03:55:00